Regional Weather Roundup
Issued by NWS Charleston, SC

Current Version | Previous Version | Text Only | Print | Product List | Glossary Off
Versions: 1 2 3 4 5 6 7 8 9 10 11 12 13 14 15 16 17 18 19 20 21 22 23 24 25 26 27 28 29 30 31 32 33 34 35 36 37 38 39 40 41 42 43 44 45 46 47 48 49 50

000
ASUS42 KCHS 211925
RWRCHS

REGIONAL WEATHER ROUNDUP
NATIONAL WEATHER SERVICE CHARLESTON SC
200 PM EST SUN DEC 21 2014

NOTE: "FAIR" INDICATES FEW OR NO CLOUDS BELOW 12,000 FEET WITH NO
SIGNIFICANT WEATHER AND/OR OBSTRUCTIONS TO VISIBILITY.

NOT ALL STATIONS ARE QUALITY CONTROLLED BY THE NATIONAL
WEATHER SERVICE. USE DATA WITH CAUTION...ESPECIALLY
DEWPOINT OBSERVATIONS.

SCZ027-030-031-034>040-042>050-212000-
...SOUTHEAST SOUTH CAROLINA...

CITY           SKY/WX    TMP DP  RH WIND       PRES   REMARKS
N CHARLESTON   CLOUDY    50  40  68 NE10      30.16F
WATERFRONT PRK NOT AVBL
MOUNT PLEASANT MOCLDY    52  43  71 NE3       30.15F
PINOPOLIS        N/A     50  41  71 E10       30.10F
MONCKS CORNER  FAIR      50  41  71 E7        30.16F
SUMMERVILLE    RAIN      48  41  76 NE5       30.18S
BEAUFORT MCAS  CLOUDY    49  44  83 N8        30.15F
BEAUFORT ARPT  CLOUDY    48  45  87 N12       30.14F
HILTON HEAD IS DRIZZLE   50  46  87 N10       30.16F
WALTERBORO     LGT RAIN  46  46 100 CALM      30.18S
ALLENDALE      CLOUDY    50  43  76 VRB6      30.15F

...SOUTHERN MIDLANDS AND PEE DEE...

CITY           SKY/WX    TMP DP  RH WIND       PRES   REMARKS
GEORGETOWN     NOT AVBL
KINGSTREE      NOT AVBL
ORANGEBURG     CLOUDY    52  40  63 NE7       30.17F
BARNWELL       CLOUDY    54  43  66 E10       30.16F
AIKEN          CLOUDY    54  41  62 NE10G16   30.18F
MANNING        NOT AVBL
COLUMBIA       CLOUDY    54  39  57 NE7       30.18F
SUMTER         CLOUDY    53  40  61 NE8       30.17
FLORENCE       PTSUNNY   55  39  54 NE12      30.19F
MYRTLE BEACH   CLOUDY    48  37  66 NE14      30.21F
N MYRTLE BEACH CLOUDY    50  38  63 NE12      30.18F

$$

GAZ063-065-086>088-099>101-113>116-118-119-134>141-150-212000-
...SOUTHEAST GEORGIA...

CITY           SKY/WX    TMP DP  RH WIND       PRES   REMARKS
SAVANNAH ARPT  LGT RAIN  48  45  89 NE9       30.14F
HUNTER AAF     CLOUDY    50  49  96 NE8       30.12S
FORT STEWART   NOT AVBL
STATESBORO     CLOUDY    48  48 100 NE8       30.12F
SYLVANIA       CLOUDY    48  45  88 NE10      30.14F
CLAXTON        DRIZZLE   46  46 100 E6        30.12F

...CSRA...CENTRAL AND FAR SOUTHEAST GEORGIA...

CITY           SKY/WX    TMP DP  RH WIND       PRES   REMARKS
THOMSON        CLOUDY    56  47  73 E7        30.18F
AUGUSTA-BUSH   PTSUNNY   56  41  57 E9        30.15F
AUGUSTA-DANIEL CLOUDY    56  42  59 E9        30.15F
SWAINSBORO     CLOUDY    52  52 100 E8        30.13F
VIDALIA        CLOUDY    50  48  93 NE5       30.12S FOG
EASTMAN        CLOUDY    50  50 100 NE7       30.14F FOG
HAZLEHURST     CLOUDY    51  51 100 NE9       30.10F FOG
ALMA           CLOUDY    52  49  89 NE6       30.10F
WAYCROSS       CLOUDY    56  55  96 E9        30.08F
JESUP          CLOUDY    54  52  94 NE8       30.10F
BAXLEY         CLOUDY    52  50  93 E8        30.10S
BRUNSWICK      CLOUDY    54  52  94 NE8       30.09F
SAINT SIMONS   CLOUDY    55  52  89 NE16      30.10F

$$

SCZ027-028-034-036>038-045-046-048>050-GAZ119-141-212000-
...LAKE AND SUPPLEMENTAL COASTAL OBSERVATIONS...

STATION/POSITION TIME  TEMP    WIND        PRES    WAVE   SWELL
                       AIR SEA DIR/SP/G            HT/PER HT/PER/DIR
                 (UTC) (F)     (DEG/KT/KT) (MB)    (FT/S) (FT/S/D)
UPR LAKE MARION  NOT AVBL
WINYAH BAY       1900   48      40/ 10     1021.0F
LAKE MURRAY      1900   53      90/  6/ 10 1021.3F
ACE BASIN NERRS  1900   49      30/  3     1021.0S
FORT PULASKI     1900   49 56   10/  7/ 10 1020.7F
SAPELO ISLAND    1900   53      30/ 12     1019.0S

$$

ANZ835-935-AMZ111-154-330-350-352-354-370-450-454-472-212000-
...C-MAN AND BUOY OBSERVATIONS...

STATION/POSITION TIME  TEMP    WIND        PRES    WAVE   SWELL
                       AIR SEA DIR/SP/G            HT/PER HT/PER/DIR
                 (UTC) (F)     (DEG/KT/KT) (MB)    (FT/S) (FT/S/D)
BUOY 41004       1900   60 69   30/ 21/ 23 1019.4F   6/ 6   3/ 7
BUOY 41008       1900   56 59   40/ 17/ 21 1018.8F   5/ 7   2/100/10
FOLLY BEACH CMAN 1900   49      40/ 19/ 20 1021.3F
CAPERS NEARSHORE 1800   50      60/ 19/ 23   N/A
FRIPP NEARSHORE  NOT AVBL


STATION/POSITION TIME  TEMP    WIND        PRES    WAVE   SWELL
                       AIR SEA DIR/SP/G            HT/PER HT/PER/DIR
                 (UTC) (F)     (DEG/KT/KT) (MB)    (FT/S) (FT/S/D)
5E ST. MARYS GA  1900      61                N/A     5/ 6
FRYING PAN BUOY  1900   56 69   40/ 19/ 23 1022.2S   6/ 6
BUOY 41025       1900   53                 1023.5F   3/ 4
CAPE LOOKOUT NC  1900   45      20/ 16/ 20 1023.2F
BUOY 41002       1756   70 71  140/ 17/ 23 1017.8    7/ 6   2/100/10
BUOY 41010       1900   75 77  200/ 12/ 14 1018.2F   3/10   3/120/10
ST AUGUSTINE FL  1900   62     360/ 13/ 14 1017.7F


$$


USA.gov is the U.S. government's official web portal to all federal, state and local government web resources and services.